Weather History for KBRL - September, 2013

Change the Weather History Date:

Thursday, September 19, 2013

  Actual Average Record
Temperature  
Mean Temperature 81 °F 66 °F  
Max Temperature 94 °F 78 °F 94 °F (1948)
Min Temperature 67 °F 55 °F 33 °F (1991)
Degree Days  
Heating Degree Days 0 3  
Month to date heating degree days 16 22  
Since 1 July heating degree days 27 26  
Cooling Degree Days 16 4  
Month to date cooling degree days 164 112  
Year to date cooling degree days 1065 1155  
Growing Degree Days 30 (Base 50)    
Moisture  
Dew Point 66 °F    
Average Humidity 70    
Maximum Humidity 100    
Minimum Humidity 39    
Precipitation  
Precipitation 0.65 in 0.12 in 2.01 in (2010)
Month to date precipitation 1.08 2.32  
Year to date precipitation 28.14 29.57  
Sea Level Pressure  
Sea Level Pressure 29.86 in    
Wind  
Wind Speed 11 mph (SSW)    
Max Wind Speed 22 mph    
Max Gust Speed 31 mph    
Visibility 8 miles    
Events Rain , Thunderstorm    
T = Trace of Precipitation, MM = Missing Value Source: NWS Daily Summary

Daily Weather History Graph

Daily Weather History Graph

Search for Another Location

Airport or City:

Trip Planner

Search our weather history database for the weather conditions in past years. The results will help you decide how hot, cold, wet, or windy it might be!

Date:

Astronomy

Sep. 19, 2013 Rise Set
Actual Time 6:49 AM CDT 7:06 PM CDT
Civil Twilight 6:21 AM CDT 7:33 PM CDT
Nautical Twilight 5:49 AM CDT 8:05 PM CDT
Astronomical Twilight 5:16 AM CDT 8:38 PM CDT
Moon 7:04 PM CDT (9/19) 6:59 AM CDT (9/19)
Length of Visible Light 13h 11m
Length of Day
12h 16m
Full, 100% of the Moon is Illuminated
Sep 19
Full
Sep 26
Last Quarter
Oct 4
New
Oct 11
First Quarter
Oct 18
Full

Hourly Weather History & Observations

Time (CDT) Temp. Heat Index Dew Point Humidity Pressure Visibility Wind Dir Wind Speed Gust Speed Precip Events Conditions
12:53 AM 73.0 °F - 68.0 °F 84% 29.90 in 10.0 mi South 8.1 mph - N/A   Clear
1:53 AM 73.0 °F - 66.9 °F 81% 29.90 in 10.0 mi SSW 8.1 mph - N/A   Clear
2:53 AM 72.0 °F - 66.9 °F 84% 29.89 in 10.0 mi South 9.2 mph - N/A   Clear
3:53 AM 71.1 °F - 68.0 °F 90% 29.88 in 9.0 mi South 6.9 mph - N/A   Clear
4:53 AM 71.1 °F - 68.0 °F 90% 29.88 in 9.0 mi South 8.1 mph - N/A   Clear
5:53 AM 70.0 °F - 68.0 °F 93% 29.88 in 8.0 mi South 9.2 mph - N/A   Clear
6:53 AM 71.1 °F - 68.0 °F 90% 29.87 in 7.0 mi SSW 9.2 mph - N/A   Clear
7:53 AM 73.9 °F - 68.0 °F 82% 29.89 in 8.0 mi South 10.4 mph - N/A   Mostly Cloudy
8:53 AM 78.1 °F - 69.1 °F 74% 29.88 in 7.0 mi SSW 11.5 mph - N/A   Scattered Clouds
9:53 AM 82.9 °F 85.8 °F 68.0 °F 60% 29.88 in 10.0 mi SSW 15.0 mph 24.2 mph N/A   Clear
10:53 AM 86.0 °F 89.4 °F 68.0 °F 55% 29.87 in 10.0 mi SW 11.5 mph 20.7 mph N/A   Clear
11:53 AM 89.1 °F 91.3 °F 66.0 °F 46% 29.87 in 7.0 mi SSW 17.3 mph 24.2 mph N/A   Clear
12:53 PM 90.0 °F 92.8 °F 66.9 °F 46% 29.86 in 10.0 mi SSW 15.0 mph 21.9 mph N/A   Clear
1:53 PM 93.9 °F 96.1 °F 64.9 °F 38% 29.83 in 10.0 mi SW 18.4 mph 26.5 mph 0.00 in   Clear
2:53 PM 93.0 °F 94.6 °F 64.0 °F 38% 29.81 in 9.0 mi SSW 15.0 mph 21.9 mph N/A   Partly Cloudy
3:53 PM 93.0 °F 94.6 °F 64.0 °F 38% 29.78 in 9.0 mi SW 16.1 mph 23.0 mph N/A   Clear
4:53 PM 91.0 °F 93.8 °F 66.0 °F 44% 29.74 in 10.0 mi South 12.7 mph - N/A   Clear
5:53 PM 87.1 °F 89.2 °F 66.0 °F 49% 29.76 in 10.0 mi SSW 10.4 mph - N/A   Clear
6:53 PM 84.9 °F 86.6 °F 64.9 °F 51% 29.79 in 10.0 mi SSW 12.7 mph - N/A   Clear
7:47 PM 77.0 °F - 60.8 °F 57% 29.86 in 10.0 mi North 15.0 mph 29.9 mph N/A Thunderstorm Mostly Cloudy
7:48 PM 77.0 °F - 61.0 °F 58% 29.84 in 10.0 mi North 12.7 mph 28.8 mph N/A Thunderstorm Mostly Cloudy
8:13 PM 71.6 °F - 64.4 °F 78% 29.88 in 7.0 mi NW 13.8 mph 24.2 mph 0.03 in Rain , Thunderstorm Light Rain
8:47 PM 68.0 °F - 64.4 °F 88% 29.88 in 5.0 mi Calm Calm - 0.17 in Rain , Thunderstorm Light Rain
8:53 PM 66.9 °F - 64.9 °F 93% 29.86 in 3.0 mi NW 5.8 mph - 0.19 in Rain , Thunderstorm Rain
9:01 PM 66.2 °F - 66.2 °F 100% 29.87 in 2.5 mi NW 4.6 mph - 0.06 in Rain , Thunderstorm Heavy Rain
9:11 PM 66.2 °F - 66.2 °F 100% 29.87 in 7.0 mi East 4.6 mph - 0.08 in Rain , Thunderstorm Rain
9:18 PM 66.2 °F - 66.2 °F 100% 29.87 in 5.0 mi ESE 5.8 mph - 0.10 in Rain Rain
9:27 PM 66.2 °F - 66.2 °F 100% 29.87 in 10.0 mi East 4.6 mph - 0.11 in Rain , Thunderstorm Light Thunderstorms and Rain
9:48 PM 66.2 °F - 66.2 °F 100% 29.89 in 8.0 mi Calm Calm - 0.13 in Rain Light Rain
9:53 PM 66.9 °F - 66.0 °F 97% 29.89 in 8.0 mi SSW 4.6 mph - 0.14 in Rain Light Rain
10:53 PM 66.9 °F - 66.9 °F 100% 29.90 in 5.0 mi South 10.4 mph - 0.14 in Rain Rain
11:53 PM 66.9 °F - 66.0 °F 97% 29.85 in 7.0 mi WSW 3.5 mph - 0.17 in Rain Light Rain